Location: Newark
(25.0000°N, 73.5000°E)
Time: 06:07:58
(UTC+00:00)

ISS - Visible Passes

Search period start: 07 December 2019 00:00
Search period end: 17 December 2019 00:00
Orbit: 411 x 421 km, 51.6° (Epoch: 07 December)

Date Brightness Start Highest point End Pass type
(mag) Time Alt. Az. Time Alt. Az. Time Alt. Az.
10 Dec -1.6 12:52:22 10° NNE 12:53:20 11° NE 12:54:01 10° NE visible
10 Dec -0.5 14:27:00 10° NW 14:27:01 10° NW 14:27:01 10° NW visible
11 Dec -3.9 13:38:25 10° NW 13:41:46 75° NE 13:42:10 63° ESE visible
12 Dec -3.1 12:50:09 10° NNW 12:53:13 33° NE 12:56:18 10° ESE visible
12 Dec -0.4 14:28:25 10° WSW 14:29:40 12° SW 14:30:54 10° SW visible
13 Dec -1.3 13:38:31 10° WNW 13:41:16 24° SW 13:44:02 10° S visible
14 Dec -2.8 12:49:34 10° NW 12:52:49 53° SW 12:56:06 10° SSE visible
16 Dec -0.2 12:50:33 10° W 12:52:11 13° SW 12:53:49 10° SSW visible
